Weather History for Kirksville, MO

Change the Weather History Date:

Sunday, December 9, 2012

  Actual Average Record
Temperature  
Mean Temperature 32 °F 30 °F  
Max Temperature 43 °F 39 °F 64 °F (1940)
Min Temperature 21 °F 22 °F -4 °F (1977)
Degree Days  
Heating Degree Days 33 35  
Month to date heating degree days 186 300  
Since 1 July heating degree days 1456 1521  
Cooling Degree Days 0 0  
Month to date cooling degree days 0 0  
Year to date cooling degree days 1321 939  
Moisture  
Dew Point 35 °F    
Average Humidity 84    
Maximum Humidity 100    
Minimum Humidity 68    
Precipitation  
Precipitation 0.08 in 0.06 in 1.66 in (2003)
Month to date precipitation 0.15 0.59  
Year to date precipitation 26.57 38.15  
Sea Level Pressure  
Sea Level Pressure 29.88 in    
Wind  
Wind Speed 10 mph (WNW)    
Max Wind Speed 21 mph    
Max Gust Speed 28 mph    
Visibility 6 miles    
Events Rain    
T = Trace of Precipitation, MM = Missing Value Source: NWS Daily Summary

Daily Weather History Graph

Daily Weather History Graph

Search for Another Location

Airport:

Trip Planner

Search our weather history database for the weather conditions in past years. The results will help you decide how hot, cold, wet, or windy it might be!

Date:

Astronomy

Dec. 09, 2012 Rise Set
Actual Time 7:20 AM CST 4:44 PM CST
Civil Twilight 6:50 AM CST 5:15 PM CST
Nautical Twilight 6:16 AM CST 5:48 PM CST
Astronomical Twilight 5:43 AM CST 6:21 PM CST
Moon 2:54 AM CST (12/9) 1:51 PM CST (12/9)
Length of Visible Light 10h 24m
Length of Day
9h 23m
Waning Crescent, 18% of the Moon is Illuminated
Dec 9
Waning Crescent
Dec 13
New
Dec 19
First Quarter
Dec 28
Full
Jan 4
Last Quarter

Hourly Weather History & Observations

Time (CST) Temp. Windchill Dew Point Humidity Pressure Visibility Wind Dir Wind Speed Gust Speed Precip Events Conditions
12:55 AM 37.9 °F 30.0 °F 36.0 °F 93% 29.93 in 4.0 mi East 12.7 mph - 0.01 in Rain Light Rain
1:55 AM 37.9 °F 30.5 °F 37.0 °F 97% 29.91 in 3.0 mi East 11.5 mph - 0.01 in   Overcast
2:03 AM 37.4 °F 30.3 °F 37.4 °F 100% 29.88 in 2.5 mi ESE 10.4 mph - 0.01 in Rain Light Rain
2:13 AM 37.4 °F 30.3 °F 37.4 °F 100% 29.88 in 4.0 mi ESE 10.4 mph - 0.01 in Rain Light Rain
2:55 AM 37.9 °F 31.5 °F 37.0 °F 97% 29.90 in 4.0 mi ESE 9.2 mph - 0.01 in Rain Light Rain
3:34 AM 37.4 °F 31.4 °F 37.4 °F 100% 29.86 in 2.5 mi East 8.1 mph - 0.00 in   Overcast
3:55 AM 37.9 °F 32.1 °F 37.0 °F 97% 29.88 in 2.0 mi ESE 8.1 mph - 0.01 in   Overcast
4:12 AM 37.4 °F 31.4 °F 37.4 °F 100% 29.84 in 2.5 mi East 8.1 mph - 0.00 in Rain Light Rain
4:38 AM 37.4 °F 33.8 °F 37.4 °F 100% 29.85 in 1.5 mi East 4.6 mph - 0.01 in   Overcast
4:55 AM 37.9 °F 35.5 °F 37.9 °F 100% 29.87 in 1.5 mi East 3.5 mph - 0.01 in Rain Light Rain
5:30 AM 37.4 °F 32.8 °F 37.4 °F 100% 29.84 in 2.0 mi East 5.8 mph - 0.02 in   Overcast
5:37 AM 37.4 °F 33.8 °F 37.4 °F 100% 29.84 in 1.8 mi East 4.6 mph - 0.02 in   Overcast
5:55 AM 37.9 °F 35.5 °F 37.9 °F 100% 29.87 in 1.8 mi East 3.5 mph - 0.03 in   Overcast
6:35 AM 39.2 °F 37.0 °F 37.4 °F 93% 29.84 in 2.0 mi East 3.5 mph - 0.00 in   Overcast
6:55 AM 39.0 °F 36.8 °F 37.9 °F 96% 29.87 in 2.5 mi ESE 3.5 mph - 0.00 in   Overcast
7:55 AM 39.0 °F - 39.0 °F 100% 29.88 in 1.2 mi Calm Calm - N/A   Overcast
8:40 AM 39.2 °F - 39.2 °F 100% 29.85 in 0.8 mi Calm Calm - N/A   Overcast
8:55 AM 39.9 °F 37.8 °F 39.0 °F 97% 29.87 in 0.8 mi NW 3.5 mph - N/A   Overcast
9:13 AM 39.2 °F - 39.2 °F 100% 29.85 in 1.0 mi Calm Calm - N/A   Overcast
9:55 AM 39.9 °F 37.8 °F 39.9 °F 100% 29.87 in 1.5 mi WNW 3.5 mph - N/A   Overcast
10:10 AM 39.2 °F 33.6 °F 39.2 °F 100% 29.85 in 3.0 mi WNW 8.1 mph - N/A   Overcast
10:21 AM 39.2 °F 33.6 °F 39.2 °F 100% 29.85 in 5.0 mi West 8.1 mph - N/A   Overcast
10:33 AM 41.0 °F 35.2 °F 39.2 °F 93% 29.85 in 8.0 mi West 9.2 mph - N/A   Overcast
10:55 AM 42.1 °F 37.7 °F 39.9 °F 92% 29.87 in 9.0 mi West 6.9 mph - N/A   Overcast
11:08 AM 41.0 °F 36.4 °F 39.2 °F 93% 29.84 in 10.0 mi WNW 6.9 mph - N/A   Overcast
11:34 AM 42.8 °F 39.3 °F 39.2 °F 87% 29.83 in 10.0 mi West 5.8 mph - N/A   Overcast
11:55 AM 42.1 °F 36.6 °F 39.0 °F 89% 29.86 in 10.0 mi West 9.2 mph - N/A   Overcast
12:55 PM 42.1 °F 38.4 °F 37.9 °F 85% 29.85 in 10.0 mi Variable 5.8 mph - N/A   Overcast
1:55 PM 41.0 °F 35.2 °F 37.0 °F 86% 29.86 in 10.0 mi WNW 9.2 mph - N/A   Overcast
2:15 PM 41.0 °F 35.8 °F 37.4 °F 87% 29.83 in 10.0 mi WNW 8.1 mph - N/A   Overcast
2:22 PM 41.0 °F 34.7 °F 37.4 °F 87% 29.84 in 10.0 mi WNW 10.4 mph - N/A   Overcast
2:55 PM 41.0 °F 35.8 °F 37.0 °F 86% 29.88 in 10.0 mi West 8.1 mph - N/A   Overcast
3:11 PM 41.0 °F 35.8 °F 37.4 °F 87% 29.84 in 9.0 mi West 8.1 mph - N/A   Overcast
3:41 PM 41.0 °F 35.8 °F 37.4 °F 87% 29.85 in 9.0 mi WNW 8.1 mph - N/A   Overcast
3:55 PM 41.0 °F 35.2 °F 37.0 °F 86% 29.88 in 8.0 mi WNW 9.2 mph - N/A   Overcast
4:07 PM 39.2 °F 30.2 °F 35.6 °F 87% 29.85 in 6.0 mi WNW 17.3 mph 23.0 mph N/A   Overcast
4:17 PM 39.2 °F 30.8 °F 35.6 °F 87% 29.85 in 5.0 mi WNW 15.0 mph 24.2 mph N/A   Overcast
4:45 PM 37.4 °F 29.8 °F 33.8 °F 87% 29.85 in 9.0 mi WNW 11.5 mph 17.3 mph N/A   Overcast
4:55 PM 37.0 °F 31.0 °F 32.0 °F 82% 29.89 in 10.0 mi WNW 8.1 mph - N/A   Mostly Cloudy
5:55 PM 34.0 °F 24.2 °F 28.9 °F 82% 29.92 in 10.0 mi WNW 15.0 mph 19.6 mph N/A   Mostly Cloudy
6:55 PM 30.0 °F 18.7 °F 21.9 °F 72% 29.95 in 10.0 mi WNW 16.1 mph 24.2 mph N/A   Mostly Cloudy
7:55 PM 28.0 °F 16.5 °F 19.9 °F 72% 29.96 in 10.0 mi WNW 15.0 mph 24.2 mph N/A   Overcast
8:55 PM 26.1 °F 13.1 °F 18.0 °F 71% 29.98 in 10.0 mi WNW 17.3 mph 21.9 mph N/A   Overcast
9:55 PM 24.1 °F 11.5 °F 17.1 °F 75% 29.98 in 10.0 mi WNW 15.0 mph 21.9 mph N/A   Overcast
10:55 PM 21.9 °F 6.9 °F 15.1 °F 75% 29.99 in 10.0 mi WNW 19.6 mph 25.3 mph N/A   Overcast
11:55 PM 21.0 °F 6.6 °F 14.0 °F 74% 29.99 in 10.0 mi WNW 17.3 mph 24.2 mph N/A   Overcast